1st Responders/1st Detectors/Storm Spotters Weather Summary for Whitley County, KY

Forecast Maps


Reg. NEXRAD Animation


National Fire Danger: Day 1 & 2 Map

Current NWS Watch/Warnings

SPC Convective Day 1 Outlook


Day 2 Outlook

(Click images to enlarge|Page will refresh every 5 minutes)
UK Ag. Weather Center Desktop Severe Weather Service[HERE]
Whitley County, KY Hazardous Weather Outlook Webcast
(9 AM to 9 PM Mon-Fri)
[Fast]
[Dial-up]


UKAWC 1st Detectors/1st Responders Precision Weather Forecast For WHITLEY County, Kentucky
(based on the NWS County Digital Forecast)

ISSUED AT 01:00 UTC ON SUNDAY JAN 20 2019
DAY SATURDAY SUNDAY
EDT 3HR 10P 11P MIDN 1A 2A 3A 4A 5A 6A 7A 8A 9A 10A 11A NOON 1P 2P 3P 4P 5P 6P 7P
MAX/MIN -- -- -- -- -- -- -- -- -- -- 23° -- -- -- -- -- -- -- -- -- -- 25°
TEMP 52° 50° 49° 43° 40° 38° 32° 29° 29° 27° 25° 25° 23° 22° 22° 22° 22° 22° 23° 23° 22° 20°
SKY COVER 100% 100% 100% 100% 100% 100% 100% 100% 100% 100% 100% 96% 92% 89% 85% 81% 77% 73% 69% 64% 60% 56%
Clouds
DEW PT 49° 49° 45° 40° 38° 34° 29° 25° 25° 22° 22° 20° 16° 16° 16° 13° 13° 11°
RH 92% 96% 89% 88% 88% 85% 88% 85% 81% 84% 87% 80% 73% 77% 73% 70% 68% 59% 52% 47% 45% 51%
POP 12HR -- -- -- -- -- -- -- -- -- -- 77% -- -- -- -- -- -- -- -- -- -- --
RAIN/SNOW (liq.equ) -- -- -- -- 0.18in -- -- -- -- -- 0.08in -- -- -- -- -- 0.01in -- -- -- -- --
SNOWFALL -- -- -- -- 0in -- -- -- -- -- 0in -- -- -- -- -- 0in -- -- -- -- --
WIND SPEED(MPH) 8 8 10 13 13 15 15 15 15 15 13 13 13 13 10 10 10 10 10 10 10 9
WIND Gust(MPH) 14 14 16 25 26 26 30 30 30 29 26 23 23 22 16 15 15 15 15 15 15 15
WIND DIR SW SW W W W NW NW NW NW NW NW NW NW NW NW NW NW NW NW NW NW NW
DEW -- -- -- -- -- -- -- -- -- -- -- -- -- -- -- -- -- -- -- -- -- --
HeatIndex 52 50 49 37 33 29 22 19 18 15 13 13 12 11 11 10 10 11 13 13 11 9
Snow -- -- -- -- -- -- -- -- -- -- -- -- -- -- -- -- -- -- -- -- -- --
Snow Showers -- -- -- -- -- -- Likely Definite Definite Likely Chance Chance Chance Slight Chance Slight Chance Slight Chance Chance Chance -- -- -- --
Rain -- -- -- -- Chance -- -- -- -- -- -- -- -- -- -- -- -- -- -- -- -- --
Rain Showers Likely Likely Likely Likely -- Likely -- -- -- -- -- -- -- -- -- -- -- -- -- -- -- --
WIND CHILL -- -- -- 36° 33° 29° 22° 18° 18° 16° 14° 14° 11° 10° 11° 11° 11° 11° 13° 13° 11° 10°
SPRAY COND
DRY COND
LIVESTOCK COLDSTRESS



DAY MONDAY TUESDAY WEDNESDAY THURSDAY FRIDAY SATURDAY
EDT 6HR 8P 9P 10P 11P MIDN 1A 2A 3A 4A 5A 6A 7A 8A 9A 11A 2P 5P 8P 11P 2A 5A 8A 11A 2P 5P 8P 2A 8A 2P 8P 2A 8A 2P 8P 2A 8A 2P 8P 2A 8A 2P 8P
MAX/MIN -- -- -- -- -- -- -- -- -- -- -- -- 11° -- -- -- 29° -- -- -- -- 20° -- -- 49° -- -- 38° 52° -- -- 29° 38° -- -- 25° 34° -- -- 18° 34° --
TEMP 20° 18° 18° 18° 16° 16° 14° 14° 13° 13° 11° 11° 11° 13° 16° 23° 29° 22° 22° 22° 22° 22° 34° 45° 49° 40° 43° 52° 50° 45° 34° 29° 38° 32° 29° 27° 34° 29° 22° 20° 32° 29°
SKY COVER 52% 48% 45% 42% 38% 35% 32% 29% 27% 25% 22% 20% 17% 18% 19% 28% 26% 24% 13% 25% 13% 24% 20% 32% 40% 69% 82% 96% 99% 98% 98% 86% 58% 57% 56% 59% 56% 69% 61% 55% 63% 73%
Clouds
DEW PT 11° 11° 16° 20° 22° 27° 38° 40° 45° 40° 31° 27° 27° 25° 25° 23° 25° 20° 16° 13° 20° 18°
RH 53% 61% 64% 64% 67% 66% 70% 69% 73% 76% 79% 76% 76% 76% 63% 41% 32% 47% 56% 54% 64% 62% 47% 35% 35% 57% 79% 65% 80% 82% 88% 96% 63% 72% 84% 88% 66% 72% 77% 77% 58% 63%
POP 12HR 49% -- -- -- -- -- -- -- -- -- -- -- 4% -- -- -- -- 2% -- -- -- 3% -- -- -- 6% -- 52% -- 88% -- 78% -- 33% -- 14% -- 14% -- 12% -- 17%
RAIN/SNOW (liq.equ) 0.00in -- -- -- -- -- 0.00in -- -- -- -- -- 0.00in -- -- 0.00in -- 0.00in -- 0.00in -- 0.00in -- 0.00in -- 0.00in -- -- -- -- -- -- -- -- -- -- -- -- -- -- -- --
SNOWFALL 0in -- -- -- -- -- 0in -- -- -- -- -- 0in -- -- 0in -- 0in -- 0in -- 0in -- 0in -- 0in -- -- -- -- -- -- -- -- -- -- -- -- -- -- -- --
WIND SPEED(MPH) 8 7 7 7 7 6 6 5 5 2 2 2 2 2 2 5 2 5 5 2 2 5 7 10 9 9 15 10 7 6 6 7 6 6 6 7 7 6 6 6 7 7
WIND DIR N N N N N N N N N N N N N N N NE E E E E SE SE S S S S S S SW W NW NW W W W W W W W W SW W
HeatIndex 9 9 7 8 7 7 6 7 6 7 5 5 5 7 11 18 25 16 15 17 17 15 27 45 49 34 36 52 50 41 29 22 33 27 22 19 28 22 15 12 25 23
Snow -- -- -- -- -- -- -- -- -- -- -- -- -- -- -- -- -- -- -- -- -- -- -- -- -- -- -- -- -- -- Likely Chance -- -- -- -- -- -- -- -- -- Slight Chance
Snow Showers -- -- -- -- -- -- -- -- -- -- -- -- -- -- -- -- -- -- -- -- -- -- -- -- -- -- -- -- -- -- -- -- -- -- -- -- -- -- -- Chance -- --
Rain -- -- -- -- -- -- -- -- -- -- -- -- -- -- -- -- -- -- -- -- -- -- -- -- -- -- Slight Chance Likely Definite Definite Likely -- Slight Chance -- -- -- -- -- -- -- -- --
Rain Showers -- -- -- -- -- -- -- -- -- -- -- -- -- -- -- -- -- -- -- -- -- -- -- -- -- -- -- -- -- -- -- -- -- -- -- -- -- -- -- -- -- --
WIND CHILL 11° -- -- -- -- -- -- 17° -- 16° 16° -- -- 16° 28° 40° -- 34° 36° -- -- 42° 29° 22° 34° 27° 23° 20° 28° 23° 15° 12° 26° 22°
SPRAY COND
DRY COND
LIVESTOCK COLDSTRESS

Click on individual weather variable above in left-hand column (ie., TEMP, RH, QPF 12HR) to view state forecast maps






NWS 48 Hr. Forecast Maps,

Regional Hourly Observations For WHITLEY County, Kentucky
Issued at 800 PM EST SAT JAN 19 2019
...EASTERN KENTUCKY...
  
CITY           SKY/WX    TMP DP  RH WIND       PRES   REMARKS
JACKSON        CLOUDY    51  50  96 VRB5      29.43F                  
LONDON         CLOUDY    54  51  90 S8        29.41S                  
SOMERSET*      RAIN      52  52 100 SW7       29.42S                  
MONTICELLO*    HVY RAIN  55  53  93 W23G32    29.43R                  
WILLIAMSBURG*  MOCLDY    54  52  94 S3        29.43S                  
MIDDLESBORO*   RAIN      51  51 100 SE3       29.48F                  
HARLAN APT*    CLOUDY    52  49  89 S3        29.47F                  
PIKE CO APT*   RAIN      50  50 100 SE7       29.49F                  
BIG SANDY APT* LGT RAIN  52  52 100 SE20G25   29.43F                  
MOREHEAD APT*  CLOUDY    50  48  93 SE3       29.42F                  
ASHLAND*       LGT RAIN  49  48  97 S8        29.42F                  


Current NOWCAST not available:
Nowcasts are not issued routinely during fair weather. Only when
precipitation or other significant weather is occuring in this county will these
forecasts be issued. Currently, there is no short term forecast in effect.


Fire Weather Forecast For WHITLEY County, KY
Provided by the National Weather Service:

Issued at: Sat Jan 19 20:05:01 EST 2019

                      Today        Tonight      Sun          

Cloud Cover           Cloudy       Cloudy       MCldy        
Chance precip (%)     100          100          40           
Precip type           rain         snow/rain    snow         
Temp (24H TREND)      50-53 (+8)   14-25 (-14)  25-28        
Rh % (24H TREND)      82-87 (+4)   90-100 (+2)  48-59        
20ftwnd-AM(mph)       SE 5-9 G20                N 9-13 G32   
20ftwnd-PM(mph)       S 7-11 G25   SW 5-9 G28   NW 7-11 G21  
Precip duration       7            6            1            
Precip begin          7 AM         Continuing                
Precip end            Continuing   Continuing                
Precip amount         1.13         0.31         0.01         
LAL                   1            1            1            
Haines Index (MID)    3                         3            
Mixing hgt(ft-AGL)    400                       2700         
Transport wnd (mph)   S 25                      NW 17        
Vent rate (kt-ft)     7715                      41185        
ADI Early             30 Fair      21 Fair      50 Gen Good  
ADI Late              30 Fair      50 Gen Good  40 Fair      
Max LVORI Early       5            5            3            
Max LVORI Late        5            5            2            

REMARKS...RANGES OF MIN T EXCEEDING 8 DEGREES & RANGES OF MAX RH        
EXCEEDING 10% INDICATE THE LIKELIHOOD OF THERMAL BELTS. ADI IS        
ATMOSPHERIC DISPERSION INDEX BY LAVDAS. DISPERSION INDEX IS        
MAGNITUDE OF VENT RATE DIVIDED BY 1000.


SPC's Fire Weather Web Tool (Excellent!), SPC's Fire Weather Outlooks, NWS Fire Weather WEB, Fire Danger Class Map,
Keetch-Byram Drought Index, ROMAN Web, Haines Index ,
WFAS's 10-hr Dead Fuel Moist., WFAS's 100-hr Dead Fuel Moist., Probablity of Ignition, Visual blackness Map, Palmer Drought Index, HPC's Rainfall Forecast Maps


Hazardous Weather Outlook For WHITLEY County, Kentucky
400 PM EST Sat Jan 19 2019

   WINTER WEATHER ADVISORY IN EFFECT FROM 1 AM TO NOON EST
SUNDAY  

This hazardous weather outlook is for portions of eastern Kentucky.

 DAY ONE  This Afternoon through Tonight.

Times of moderate to heavy rain could lead to localized flooding
into this evening. A sharp cold front will then bring frigid
temperatures and some light snow accumulations to the area 
tonight. Winds could gust to as high as 40 mph late this evening
and early overnight. From this, blowing snow and reduced 
visibilities will be possible overnight along with icy spots on 
area roads. 

 DAYS TWO THROUGH SEVEN  Sunday through Friday.

A sharp cold front will lead to some additional light snow 
accumulations Sunday. This will be followed by a quick burst of 
very cold air with wind chills down into the single digits to near
zero Sunday night and Monday morning.

Accumulating snow will also be possible Wednesday night into 
Thursday, as another potent area of low pressure moves across the
region.

 SPOTTER INFORMATION STATEMENT  

Spotters are asked to call in snowfall reports tonight into
Sunday.

Latest WHITLEY County, Kentucky Watches, Warnings and Advisories.
Additional Drought Info.: UKAWC Drought Page, Kentucky Drought Watch


7-Day Forecast For WHITLEY County, KY


WINTER WEATHER ADVISORY IN EFFECT FROM 1 AM TO NOON EST SUNDAY

TONIGHT
Rain showers in the evening, then snow showers likely. Patchy fog. Snow accumulation around 1 inch. Lows in the mid 20s. Southwest winds around 10 mph shifting to the northwest with gusts to around 25 mph late. Chance of precipitation 90 percent.

SUNDAY
Much cooler. Cloudy in the morning then becoming partly sunny. A chance of snow showers in the morning, then flurries possible in the afternoon. Highs in the mid 20s. Northwest winds around 10 mph. Chance of snow 50 percent.

SUNDAY NIGHT
Cold. Partly cloudy. Lows 10 to 15. North winds around 10 mph in the evening becoming light.

MARTIN LUTHER KING JR DAY
Sunny. Highs in the upper 20s. Light winds.

MONDAY NIGHT
Mostly clear. Lows in the lower 20s. Light winds.

TUESDAY
Warmer. Mostly sunny. Highs in the upper 40s.

TUESDAY NIGHT
Mostly cloudy with a 50 percent chance of rain. Lows in the upper 30s.

WEDNESDAY
Rain. Highs in the lower 50s. Chance of rain 90 percent.

WEDNESDAY NIGHT
Rain with snow likely. Lows around 30. Chance of precipitation 80 percent.

THURSDAY
Partly sunny with a chance of snow and a slight chance of rain. Highs in the upper 30s. Chance of precipitation 40 percent.

THURSDAY NIGHT
Mostly cloudy. Lows in the mid 20s.

FRIDAY
Partly sunny. Highs in the mid 30s.

FRIDAY NIGHT
Mostly cloudy. Flurries possible. Lows in the lower 20s.

SATURDAY
Partly sunny. Flurries possible. Highs in the mid 30s.

Ag Weather Center, Department of Biosystems & Agricultural Engineering, University of Kentucky